Flag for Germany Weather past 2 weeks in Freiberg, Saxony, Germany

Now
72 °F

Partly sunny.


Feels Like: 77 °F
Forecast: 49 / 76 °F
Wind: 9 mph from Northwest

Location: Dresden-Klotzsche

Current Time: Jul 31, 2014 at 2:38:02 PM

Latest Report: Jul 31, 2014 at 1:50 PM


Visibility: N/A

Pressure: 29.98 "Hg

Humidity: 50%

Dew point: 52 °F

Location of FreibergLocation

Historic Weather in Freiberg — Graph

°F

Freiberg temperature yesterday

Maximum temperature yesterday: 75 °F (at 4:20 PM)
Minimum temperature yesterday: 64 °F (at 1:50 AM)
Average temperature yesterday: 68 °F

Past Weeks' High & Low Weather Summary

 TemperatureHumidityPressure
High90 °F (Jul 20, 2:20 PM)100% (Jul 24, 9:50 PM)30.18 "Hg (Jul 24, 9:50 PM)
Low57 °F (Jul 24, 5:20 AM)24% (Jul 20, 3:50 PM)29.71 "Hg (Jul 29, 5:20 PM)
Average71 °F68%29.94 "Hg
* Reported Jul 16 1:20 PM — Jul 31 1:20 PM, Freiberg, Weather by CustomWeather, © 2014

Note: Actual official high and low records may vary slightly from our data, if they occured in-between our weather recording intervals... More about our weather records

Advertising

Freiberg weather history for previous 24 hours

 ConditionsComfort  
Time TempWeatherWind HumidityBarometerVisibility
1:20 PM
Jul 31
72 °FPartly sunny.12 mph53%29.98 "HgN/A
12:50 PM70 °FBroken clouds.13 mph57%29.98 "HgN/A
12:20 PM70 °FBroken clouds.12 mph60%29.98 "HgN/A
11:50 AM68 °FPartly sunny.10 mph64%29.98 "HgN/A
11:20 AM68 °FPartly sunny.12 mph64%29.98 "HgN/A
10:50 AM68 °FPartly sunny.12 mph64%29.98 "HgN/A
10:20 AM66 °FBroken clouds.9 mph68%29.98 "HgN/A
9:50 AM64 °FPartly sunny.8 mph78%29.98 "HgN/A
9:20 AM63 °FSunny.10 mph83%29.95 "Hg10 mi
8:50 AM63 °FBroken clouds.8 mph83%29.95 "HgN/A
8:20 AM63 °FPartly sunny.8 mph83%29.95 "HgN/A
7:50 AM63 °FPartly sunny.7 mph83%29.95 "HgN/A
7:20 AM63 °FBroken clouds.7 mph83%29.95 "HgN/A
6:50 AM63 °FPartly sunny.8 mph88%29.95 "HgN/A
6:20 AM63 °FClear.7 mph94%29.92 "Hg10 mi
5:50 AM63 °FPassing clouds.7 mph88%29.92 "HgN/A
5:20 AM63 °FPassing clouds.7 mph94%29.92 "HgN/A
4:50 AM64 °FPassing clouds.8 mph88%29.89 "HgN/A
4:20 AM64 °FPassing clouds.7 mph88%29.89 "HgN/A
3:50 AM64 °FPassing clouds.5 mph88%29.89 "HgN/A
3:20 AM64 °FPassing clouds.7 mph94%29.89 "Hg4 mi
2:50 AM64 °FPassing clouds.9 mph94%29.89 "Hg4 mi
2:20 AM64 °FLight rain. Partly cloudy.9 mph94%29.89 "Hg5 mi
1:50 AM64 °FLight rain. Partly cloudy.5 mph94%29.89 "HgN/A
1:20 AM64 °FLight rain. Partly cloudy.5 mph94%29.89 "HgN/A
12:50 AM64 °FLight rain. Passing clouds.9 mph94%29.86 "HgN/A
12:20 AM64 °FPartly cloudy.8 mph94%29.86 "HgN/A
11:50 PM
Jul 30
66 °FLight rain. Passing clouds.8 mph88%29.86 "HgN/A
11:20 PM66 °FLow clouds.10 mph88%29.86 "HgN/A
10:50 PM66 °FPassing clouds.9 mph88%29.86 "HgN/A
10:20 PM66 °FPassing clouds.9 mph88%29.83 "HgN/A
9:50 PM66 °FPartly sunny.9 mph88%29.83 "HgN/A
9:20 PM68 °FPartly sunny.9 mph83%29.83 "HgN/A
8:50 PM68 °FPartly sunny.9 mph83%29.83 "HgN/A
8:20 PM68 °FBroken clouds.8 mph83%29.80 "HgN/A
7:50 PM70 °FBroken clouds.10 mph78%29.80 "HgN/A
7:20 PM70 °FBroken clouds.10 mph78%29.80 "HgN/A
6:50 PM72 °FBroken clouds.9 mph73%29.77 "HgN/A
6:20 PM72 °FBroken clouds.8 mph73%29.77 "HgN/A
5:50 PM72 °FBroken clouds.9 mph73%29.77 "HgN/A
5:20 PM73 °FBroken clouds.9 mph74%29.77 "HgN/A
4:50 PM73 °FBroken clouds.8 mph69%29.77 "HgN/A
4:20 PM75 °FBroken clouds.7 mph69%29.77 "HgN/A
3:50 PM73 °FBroken clouds.6 mph69%29.77 "HgN/A
3:20 PM73 °FBroken clouds.7 mph69%29.77 "HgN/A
2:50 PM73 °FBroken clouds.6 mph74%29.77 "HgN/A
2:20 PM73 °FBroken clouds.8 mph74%29.77 "HgN/A
Weather by CustomWeather, © 2014

See weather overviewHow to use our weather pages